DW3765 Weather Reports


Display with metric or nautical units.
time (UTC)temp
F
wind
direction
speed
MPH
gust
MPH
rain 1hr
in
rain 24hr
in
rain mn
in
humidity
%
barometer
mb
20260505124638 69 218 7.0 14.0 0.00 0.00 0.00 92 1009.0
20260505124150 69 205 7.0 14.0 0.00 0.00 0.00 92 1008.9
20260505123653 69 179 7.0 13.0 0.00 0.00 0.00 92 1008.9
20260505123143 69 183 8.0 12.0 0.00 0.00 0.00 92 1008.8
20260505122654 69 186 6.0 11.0 0.00 0.00 0.00 92 1008.8
20260505122137 69 223 5.0 10.0 0.00 0.00 0.00 92 1008.6
20260505121647 69 195 4.0 10.0 0.00 0.00 0.00 92 1008.5
20260505121131 69 211 6.0 10.0 0.00 0.00 0.00 92 1008.4
20260505120643 69 161 7.0 11.0 0.00 0.00 0.00 92 1008.4
20260505120146 69 188 6.0 9.0 0.00 0.00 0.00 92 1008.4
20260505115638 69 161 5.0 11.0 0.00 0.00 0.00 92 1008.4
20260505115140 69 177 4.0 10.0 0.00 0.00 0.00 92 1008.3
20260505114631 69 207 4.0 11.0 0.00 0.00 0.00 92 1008.3
20260505114141 69 183 5.0 12.0 0.00 0.00 0.00 92 1008.3
20260505113642 69 207 5.0 16.0 0.00 0.00 0.00 92 1008.3
20260505113212 69 210 7.0 16.0 0.00 0.00 0.00 92 1008.3
20260505112656 69 211 6.0 13.0 0.00 0.00 0.00 92 1008.3
20260505112206 69 176 7.0 14.0 0.00 0.00 0.00 92 1008.2
20260505111627 69 213 8.0 14.0 0.00 0.00 0.00 92 1008.2
20260505111139 69 198 6.0 13.0 0.00 0.00 0.00 92 1008.3
20260505110650 69 197 7.0 13.0 0.00 0.00 0.00 92 1008.3
20260505110129 69 215 6.0 18.0 0.00 0.00 0.00 92 1008.3
20260505102201 69 162 6.0 12.0 0.00 0.00 0.00 92 1008.4
20260505101636 69 187 6.0 12.0 0.00 0.00 0.00 92 1008.4
20260505101147 69 170 7.0 13.0 0.00 0.00 0.00 92 1008.5
20260505100628 69 196 5.0 14.0 0.00 0.00 0.00 92 1008.5
20260505100141 69 196 6.0 14.0 0.00 0.00 0.00 92 1008.5
20260505095630 69 196 5.0 14.0 0.00 0.00 0.00 92 1008.6
20260505095205 69 165 7.0 13.0 0.00 0.00 0.00 92 1008.5
20260505094700 69 215 7.0 13.0 0.00 0.00 0.00 92 1008.5
20260505094136 69 188 5.0 13.0 0.00 0.00 0.00 92 1008.6
20260505093648 69 226 5.0 16.0 0.00 0.00 0.00 92 1008.6
20260505093155 69 192 8.0 16.0 0.00 0.00 0.00 92 1008.6
20260505092638 69 189 8.0 12.0 0.00 0.00 0.00 91 1008.6
20260505092152 69 203 5.0 16.0 0.00 0.00 0.00 91 1008.8
20260505091701 69 143 5.0 16.0 0.00 0.00 0.00 91 1008.7
20260505091151 69 148 6.0 13.0 0.00 0.00 0.00 92 1008.8
20260505090634 69 146 4.0 13.0 0.00 0.00 0.00 91 1008.8
20260505090146 69 225 5.0 15.0 0.00 0.00 0.00 91 1008.8
20260505085627 69 189 9.0 16.0 0.00 0.00 0.00 91 1008.6
20260505085140 69 215 9.0 16.0 0.00 0.00 0.00 91 1008.6
20260505084651 69 203 8.0 16.0 0.00 0.00 0.00 91 1008.8
20260505084129 69 216 8.0 19.0 0.00 0.00 0.00 91 1008.7
20260505083701 69 182 8.0 19.0 0.00 0.00 0.00 91 1008.8
20260505083154 69 192 10.0 19.0 0.00 0.00 0.00 91 1008.9
20260505082659 69 193 7.0 18.0 0.00 0.00 0.00 91 1009.0
20260505082208 69 169 8.0 15.0 0.00 0.00 0.00 90 1009.0
20260505081637 69 194 9.0 18.0 0.00 0.00 0.00 90 1009.1
20260505081205 69 186 9.0 18.0 0.00 0.00 0.00 90 1009.2
20260505080625 69 187 10.0 15.0 0.00 0.00 0.00 90 1009.2
20260505080139 69 152 8.0 15.0 0.00 0.00 0.00 90 1009.1
20260505075649 69 205 6.0 15.0 0.00 0.00 0.00 90 1009.2
20260505075127 70 199 7.0 14.0 0.00 0.00 0.00 90 1009.3
20260505074657 70 230 9.0 14.0 0.00 0.00 0.00 90 1009.3
20260505074145 70 136 5.0 15.0 0.00 0.00 0.00 90 1009.3
20260505073656 70 148 5.0 15.0 0.00 0.00 0.00 90 1009.4
20260505073139 70 180 7.0 18.0 0.00 0.00 0.00 90 1009.6
20260505072650 70 237 7.0 20.0 0.00 0.00 0.00 90 1009.6
20260505072146 70 200 9.0 20.0 0.00 0.00 0.00 89 1009.6
20260505071657 70 197 8.0 18.0 0.00 0.00 0.00 89 1009.8
20260505071139 70 135 6.0 19.0 0.00 0.00 0.00 89 1010.0
20260505070651 70 190 8.0 19.0 0.00 0.00 0.00 89 1010.1
20260505070132 70 158 4.0 16.0 0.00 0.00 0.00 89 1010.2
20260505065624 70 190 8.0 16.0 0.00 0.00 0.00 88 1010.2
20260505065133 70 221 8.0 14.0 0.00 0.00 0.00 88 1010.3
20260505064656 70 143 4.0 14.0 0.00 0.00 0.00 88 1010.3
20260505064134 70 202 7.0 14.0 0.00 0.00 0.00 88 1010.3
20260505063642 70 158 8.0 16.0 0.00 0.00 0.00 88 1010.3
20260505063130 70 180 8.0 20.0 0.00 0.00 0.00 88 1010.4
20260505062629 70 153 6.0 20.0 0.00 0.00 0.00 88 1010.4
20260505062145 70 138 4.0 21.0 0.00 0.00 0.00 88 1010.3
20260505061644 70 188 10.0 21.0 0.00 0.00 0.00 88 1010.2
20260505061147 70 200 9.0 20.0 0.00 0.00 0.00 88 1010.3
20260505060633 70 177 6.0 18.0 0.00 0.00 0.00 87 1010.3
20260505060137 70 146 8.0 20.0 0.00 0.00 0.00 87 1010.5
20260505055645 71 139 8.0 24.0 0.00 0.00 0.00 87 1010.5
20260505055133 71 171 11.0 24.0 0.00 0.00 0.00 87 1010.6
20260505054637 71 153 10.0 20.0 0.00 0.00 0.00 87 1010.6
20260505054133 71 111 9.0 16.0 0.00 0.00 0.00 87 1010.7
20260505053640 71 168 8.0 18.0 0.00 0.00 0.00 87 1010.6
20260505053149 71 196 6.0 18.0 0.00 0.00 0.00 87 1010.6
20260505052636 71 202 7.0 14.0 0.00 0.00 0.00 86 1010.6
20260505052144 71 180 6.0 16.0 0.00 0.00 0.00 86 1010.6
20260505051644 71 179 11.0 16.0 0.00 0.00 0.00 86 1010.6
20260505051128 71 169 7.0 15.0 0.00 0.00 0.00 86 1010.6
20260505050636 71 130 6.0 19.0 0.00 0.00 0.00 86 1010.3
20260505050135 71 163 7.0 19.0 0.00 0.00 0.00 86 1010.3
20260505041628 72 167 8.0 16.0 0.00 0.00 0.00 85 1010.7
20260505041128 72 185 7.0 11.0 0.00 0.00 0.00 84 1010.6
20260505040639 72 171 7.0 13.0 0.00 0.00 0.00 84 1010.6
20260505040150 72 137 5.0 13.0 0.00 0.00 0.00 84 1010.6
20260505035632 72 160 7.0 13.0 0.00 0.00 0.00 83 1010.7
20260505035144 72 171 7.0 14.0 0.00 0.00 0.00 83 1010.5
20260505034654 72 185 7.0 14.0 0.00 0.00 0.00 83 1010.5
20260505034136 72 136 9.0 14.0 0.00 0.00 0.00 82 1010.3
20260505033647 72 119 6.0 10.0 0.00 0.00 0.00 82 1010.4
20260505033147 72 153 6.0 11.0 0.00 0.00 0.00 81 1010.4
20260505032658 73 153 7.0 14.0 0.00 0.00 0.00 81 1010.4
20260505032138 73 143 7.0 14.0 0.00 0.00 0.00 81 1010.4
20260505031647 73 152 6.0 11.0 0.00 0.00 0.00 81 1010.3
20260505031129 73 115 5.0 10.0 0.00 0.00 0.00 80 1010.2
20260505030701 73 163 6.0 10.0 0.00 0.00 0.00 80 1010.3
20260505030147 73 156 6.0 10.0 0.00 0.00 0.00 79 1010.3
20260505025628 73 147 6.0 10.0 0.00 0.00 0.00 78 1010.1
20260505025140 73 134 5.0 8.0 0.00 0.00 0.00 78 1010.3
20260505024651 74 173 4.0 6.0 0.00 0.00 0.00 78 1010.4
20260505024127 74 190 3.0 6.0 0.00 0.00 0.00 78 1010.3
20260505023642 74 166 1.0 7.0 0.00 0.00 0.00 78 1010.2
20260505023146 74 192 3.0 8.0 0.00 0.00 0.00 77 1010.2
20260505022658 74 175 3.0 9.0 0.00 0.00 0.00 77 1010.3
20260505022144 74 159 5.0 9.0 0.00 0.00 0.00 77 1010.3
20260505021658 74 174 4.0 7.0 0.00 0.00 0.00 77 1010.3
20260505021133 75 165 5.0 10.0 0.00 0.00 0.00 76 1010.2
20260505020647 75 164 4.0 10.0 0.00 0.00 0.00 76 1010.0
20260505020144 75 152 4.0 10.0 0.00 0.00 0.00 76 1010.0
20260505015635 75 136 5.0 10.0 0.00 0.00 0.00 75 1009.9
20260505015156 75 152 6.0 10.0 0.00 0.00 0.00 75 1009.9
20260505014656 75 152 5.0 11.0 0.00 0.00 0.00 75 1009.9
20260505014132 75 146 5.0 11.0 0.00 0.00 0.00 74 1009.8
20260505013642 76 176 4.0 10.0 0.00 0.00 0.00 73 1009.8
20260505013142 76 136 5.0 10.0 0.00 0.00 0.00 73 1009.8
20260505012633 76 169 4.0 9.0 0.00 0.00 0.00 72 1009.9
20260505012158 76 178 5.0 8.0 0.00 0.00 0.00 71 1009.9
20260505011639 76 155 4.0 9.0 0.00 0.00 0.00 70 1009.8
20260505011144 77 180 4.0 10.0 0.00 0.00 0.00 69 1009.7
20260505010654 77 165 5.0 10.0 0.00 0.00 0.00 69 1009.7
20260505010130 77 185 5.0 10.0 0.00 0.00 0.00 68 1009.8
20260505005641 77 216 6.0 13.0 0.00 0.00 0.00 68 1009.8
20260505005212 78 202 6.0 13.0 0.00 0.00 0.00 68 1009.8
20260505004633 78 174 6.0 14.0 0.00 0.00 0.00 67 1009.7
20260505004156 78 163 10.0 14.0 0.00 0.00 0.00 67 1009.5
20260505003646 78 190 7.0 13.0 0.00 0.00 0.00 66 1009.6
20260505003137 78 183 7.0 12.0 0.00 0.00 0.00 66 1009.5
20260505002628 78 132 7.0 14.0 0.00 0.00 0.00 66 1009.5
20260505002154 79 172 9.0 14.0 0.00 0.00 0.00 65 1009.6
20260505001636 79 150 8.0 14.0 0.00 0.00 0.00 65 1009.6
20260505001140 79 155 5.0 15.0 0.00 0.00 0.00 65 1009.5
20260505000710 79 141 6.0 18.0 0.00 0.00 0.00 65 1009.5
20260505000158 79 163 9.0 18.0 0.00 0.00 0.00 64 1009.6
20260504235640 79 182 8.0 21.0 0.00 0.00 0.00 63 1009.8
20260504235129 79 186 9.0 16.0 0.00 0.00 0.00 63 1009.9
20260504234632 80 169 10.0 19.0 0.00 0.00 0.00 62 1009.8
20260504234141 80 159 12.0 19.0 0.00 0.00 0.00 62 1009.9
20260504233652 80 162 11.0 19.0 0.00 0.00 0.00 63 1010.0
20260504233133 80 168 9.0 14.0 0.00 0.00 0.00 63 1010.2
20260504232644 80 156 8.0 19.0 0.00 0.00 0.00 62 1010.3
20260504232155 80 169 9.0 19.0 0.00 0.00 0.00 62 1010.2
20260504231638 80 200 8.0 21.0 0.00 0.00 0.00 63 1010.2
20260504231147 80 200 9.0 21.0 0.00 0.00 0.00 62 1010.3
20260504230647 79 183 7.0 20.0 0.00 0.00 0.00 63 1010.4
20260504230137 79 173 10.0 20.0 0.00 0.00 0.00 63 1010.4
20260504225649 79 207 7.0 16.0 0.00 0.00 0.00 63 1010.4
20260504225148 79 148 9.0 16.0 0.00 0.00 0.00 63 1010.5
20260504224658 79 205 9.0 18.0 0.00 0.00 0.00 63 1010.8
20260504224208 79 219 11.0 18.0 0.00 0.00 0.00 62 1010.8
20260504223649 79 169 7.0 20.0 0.00 0.00 0.00 63 1010.7
20260504223137 79 182 7.0 20.0 0.00 0.00 0.00 63 1010.8
20260504222648 79 193 6.0 14.0 0.00 0.00 0.00 63 1010.9
20260504222148 79 180 8.0 16.0 0.00 0.00 0.00 63 1011.0
20260504221639 79 214 7.0 16.0 0.00 0.00 0.00 63 1010.8
20260504221142 79 192 6.0 18.0 0.00 0.00 0.00 63 1010.9
20260504220635 79 223 8.0 18.0 0.00 0.00 0.00 63 1010.9
20260504220143 79 184 7.0 23.0 0.00 0.00 0.00 64 1010.9
20260504215641 79 215 14.0 23.0 0.00 0.00 0.00 63 1010.8
20260504215153 79 229 9.0 20.0 0.00 0.00 0.00 63 1010.8
20260504214642 79 183 10.0 20.0 0.00 0.00 0.00 64 1010.9
20260504214154 78 193 8.0 19.0 0.00 0.00 0.00 64 1010.9
20260504213638 79 169 10.0 19.0 0.00 0.00 0.00 63 1010.9
20260504213149 79 184 10.0 19.0 0.00 0.00 0.00 63 1010.9
20260504212631 79 211 7.0 16.0 0.00 0.00 0.00 64 1011.1
20260504212141 79 203 11.0 19.0 0.00 0.00 0.00 63 1011.2
20260504211712 79 195 8.0 19.0 0.00 0.00 0.00 64 1011.3
20260504211132 79 219 8.0 15.0 0.00 0.00 0.00 65 1011.2
20260504210643 78 175 9.0 15.0 0.00 0.00 0.00 64 1011.5
20260504210145 79 199 8.0 19.0 0.00 0.00 0.00 64 1011.6
20260504205656 79 219 8.0 16.0 0.00 0.00 0.00 64 1011.8
20260504205203 79 211 8.0 16.0 0.00 0.00 0.00 64 1011.9
20260504204653 78 213 9.0 16.0 0.00 0.00 0.00 64 1011.8
20260504204141 79 150 10.0 16.0 0.00 0.00 0.00 64 1011.8
20260504203652 79 214 9.0 16.0 0.00 0.00 0.00 63 1011.9
20260504203152 79 149 6.0 20.0 0.00 0.00 0.00 64 1012.2
20260504202658 78 225 10.0 20.0 0.00 0.00 0.00 64 1012.3
20260504202139 78 167 6.0 18.0 0.00 0.00 0.00 64 1012.4
20260504201654 78 158 7.0 18.0 0.00 0.00 0.00 64 1012.5
20260504201205 78 189 9.0 16.0 0.00 0.00 0.00 63 1012.4
20260504200647 78 198 9.0 16.0 0.00 0.00 0.00 65 1012.5
20260504200154 79 163 7.0 18.0 0.00 0.00 0.00 64 1012.6
20260504195645 78 217 10.0 20.0 0.00 0.00 0.00 63 1012.6
20260504195150 78 196 9.0 16.0 0.00 0.00 0.00 64 1012.8
20260504194630 78 202 9.0 18.0 0.00 0.00 0.00 64 1012.7
20260504194142 78 188 10.0 20.0 0.00 0.00 0.00 63 1012.7
20260504193636 79 154 12.0 20.0 0.00 0.00 0.00 62 1012.7
20260504193137 79 190 10.0 20.0 0.00 0.00 0.00 62 1012.8
20260504192647 79 204 10.0 20.0 0.00 0.00 0.00 61 1012.8
20260504192156 79 225 11.0 20.0 0.00 0.00 0.00 61 1013.0
20260504191638 79 136 7.0 15.0 0.00 0.00 0.00 63 1013.1
20260504191148 79 273 7.0 15.0 0.00 0.00 0.00 62 1013.1
20260504190633 79 209 7.0 20.0 0.00 0.00 0.00 62 1013.2
20260504190200 78 182 10.0 20.0 0.00 0.00 0.00 64 1013.3
20260504185639 78 145 8.0 16.0 0.00 0.00 0.00 64 1013.2
20260504185151 78 156 10.0 20.0 0.00 0.00 0.00 63 1013.3
20260504184633 79 146 10.0 20.0 0.00 0.00 0.00 62 1013.4
20260504184143 79 107 5.0 18.0 0.00 0.00 0.00 64 1013.5
20260504183654 78 177 10.0 20.0 0.00 0.00 0.00 63 1013.6
20260504183133 78 139 13.0 20.0 0.00 0.00 0.00 63 1013.8
20260504182648 78 215 9.0 19.0 0.00 0.00 0.00 62 1013.9
20260504182212 78 213 9.0 20.0 0.00 0.00 0.00 63 1013.8
20260504181634 78 188 10.0 20.0 0.00 0.00 0.00 62 1014.0
20260504181144 78 171 8.0 16.0 0.00 0.00 0.00 64 1014.0
20260504180627 77 215 8.0 15.0 0.00 0.00 0.00 64 1014.1
20260504180135 77 199 6.0 15.0 0.00 0.00 0.00 66 1014.0
20260504175647 77 219 10.0 18.0 0.00 0.00 0.00 63 1014.1
20260504175149 76 233 10.0 18.0 0.00 0.00 0.00 67 1014.1
20260504174659 76 184 8.0 20.0 0.00 0.00 0.00 66 1014.1
20260504174149 76 189 9.0 19.0 0.00 0.00 0.00 64 1014.2
20260504173632 76 163 7.0 19.0 0.00 0.00 0.00 67 1014.2
20260504173142 76 219 10.0 19.0 0.00 0.00 0.00 65 1014.4
20260504172651 76 149 6.0 24.0 0.00 0.00 0.00 67 1014.2
20260504172135 76 247 8.0 21.0 0.00 0.00 0.00 65 1014.5
20260504171644 76 153 10.0 19.0 0.00 0.00 0.00 65 1014.6
20260504171151 75 165 11.0 19.0 0.00 0.00 0.00 67 1014.6
20260504170633 75 225 8.0 20.0 0.00 0.00 0.00 68 1014.7
20260504170203 75 195 8.0 18.0 0.00 0.00 0.00 70 1014.7
20260504160142 73 180 7.0 16.0 0.00 0.00 0.00 74 1015.2
20260504151142 68 208 10.0 13.0 0.00 0.00 0.00 81 1015.9
20260504150714 68 187 6.0 12.0 0.00 0.00 0.00 81 1015.8
20260504150153 68 217 5.0 13.0 0.00 0.00 0.00 82 1015.9
20260504141141 66 192 8.0 15.0 0.00 0.00 0.00 82 1015.7
20260504140653 66 205 11.0 15.0 0.00 0.00 0.00 82 1015.7
20260504140133 65 207 3.0 13.0 0.00 0.00 0.00 84 1015.8
20260504130629 62 183 2.0 6.0 0.00 0.00 0.00 86 1016.0
20260504130139 62 185 3.0 6.0 0.00 0.00 0.00 86 1015.8